Weather in Cumana

Venezuela     10°27′31″N   64°10′26″W
temp.,
°C
wind,
m/s
gust,
m/s
humid.,
%
clouds,
%
prec.,
mm/h
press.,
hPa
HPBL,
m
28 february, sun
sun2823:00+24ene7138183 0.0 1014620
02:00+23ene6118191 0.0 1013631
05:00+23e588196 0.0 1013332
08:00+24e487888 0.0 1014391
11:00+26ene811690 0.0 1015367
14:00+25ne10136933 0.0 1012370
17:00+25ene101574100 0.0 1010575
20:00+24ene7128167 0.0 1012520
1 march, mon
mon123:00+24e6127716 0.0 1013555
02:00+23ene6107517 0.0 1011562
05:00+23ene59780 0.0 1011581
08:00+23ene597715 0.0 1013631
11:00+25ne811704 0.0 1014435
14:00+25ene912703 0.1 1010492
17:00+24ene913760 0.0 1009511
20:00+24ene712810 0.0 1011563
2 march, tue
tue223:00+23ene58820 0.1 1013393
02:00+22e47800 0.1 1011307
05:00+22e47791 0.0 1011315
08:00+22e477613 0.0 1014392
11:00+25ne796354 0.0 1014307
14:00+25ne9127065 0.0 1011349
17:00+24ne8117785 0.0 1010417
20:00+24ene6108444 0.0 1013540
3 march, wed
wed323:00+23ene6108413 0.0 1014542
02:00+23e510816 0.0 1013436
05:00+23e48780 0.0 1013369
08:00+23e47720 0.0 1015364
11:00+25ne79720 0.0 1016287
14:00+25ne911750 0.0 1012327
17:00+24ne912810 0.1 1011444
20:00+24ene8128515 0.1 1013455
4 march, thu
thu423:00+24ene7118641 0.0 1015470
02:00+23e6108622 0.0 1013408
05:00+23e47830 0.0 1013302
08:00+24e34770 0.0 1015210
11:00+25n12710 0.0 1015187
14:00+26nw12740 0.0 1012255
17:00+25ne811800 0.1 1010337
20:00+25ene812869 0.3 1012280